Zurück zum Katalog

HULIANWANG DIGUI-144

AktivKommunikationLEO
NORAD 67442·PAYLOAD·🇨🇳 China

Gestartet Jan 13, 2026 von Wenchang Space Launch Site

Loading…

Nächste Überflüge (nächste 24 Stunden)

TLE

AktuellSource: Space-Track

Epoche: Sep 14, 2026, 21:16 UTC

1 67442U 26007H   26257.88646191 -.00000088  00000-0  77889-4 0  9993
2 67442  50.0083 123.8997 0000483   6.0146 354.0732 13.29329921 32721

Verfolge HULIANWANG DIGUI-144 in Echtzeit mit AllMySat

Download on the App Store